Hourly Weather Roundup
Issued by NWS Central Illinois

Home | Current Version | Previous Version | Text Only | Print | Product List | Glossary On
Versions: 1 2 3 4 5 6 7 8 9 10 11 12 13 14 15 16 17 18 19 20 21 22 23 24 25 26 27 28 29 30 31 32 33 34 35 36 37 38 39 40 41 42 43 44 45 46 47 48 49 50
000
NZUS43 KILX 222010
HWRILX

Area Weather Roundup
National Weather Service Lincoln IL
300 PM CDT SAT APR 22 2017

NOTE:  "FAIR" indicates few or no clouds below 12,000 feet, with
       no sigificant weather and/or obstructions to visibility.


CITY           SKY/WX    TMP DP  RH WIND       PRES   REMARKS
Bloomington    MOSUNNY   62  33  33 NE22G30   30.11F
Champaign      SUNNY     62  33  33 NE17G32   30.08F
Danville       MOSUNNY   60  34  38 NE15G23   30.07F
Decatur        MOSUNNY   62  38  40 NE18G30   30.08F
Effingham      CLOUDY    55  39  53 NE8G16    30.08S
Flora          CLOUDY    55  43  63 NE13G18   30.04F
Galesburg      SUNNY     62  35  37 E15G23    30.14F
Jacksonville   MOSUNNY   62  35  37 NE22G30   30.10F
Lacon          SUNNY     63  33  32 E15G22    30.13F
Lawrenceville  CLOUDY    58  43  57 NE18      30.03F
Litchfield     CLOUDY    56  38  50 NE17G25   30.07F
$$


CITY           SKY/WX    TMP DP  RH WIND       PRES   REMARKS
Lincoln        SUNNY     62  35  36 E20G25    30.10F
Macomb         SUNNY     62  35  36 NE13G24   30.15F
Mattoon        MOSUNNY   55  36  48 E20G29    30.07F
Mt Carmel AP   CLOUDY    55  42  62 NE18G25   30.01F
Olney-Noble AP CLOUDY    55  44  67 NE16      30.04F
Paris AP       CLOUDY    55  36  49 NE17G24   30.10S
Peoria         SUNNY     63  33  32 NE17G26   30.12F
Pontiac        SUNNY     63  30  28 NE15G21   30.14F
Rantoul        CLOUDY    64  32  30 NE21G32   30.09F
Robinson       PTSUNNY   56  41  56 NE14G23   30.05F
Springfield    MOSUNNY   65  37  35 NE20G31   30.08F
Taylorville    PTSUNNY   58  34  39 E15G32    30.08F
$$

...REGIONAL REPORTS...


CITY           SKY/WX    TMP DP  RH WIND       PRES   REMARKS
Chicago O`Hare MOSUNNY   58  24  27 NE10      30.17F
Kankakee       PTSUNNY   58  29  33 N12G22    30.14F
Moline         SUNNY     63  33  32 NE12G22   30.17F
Mount Sterling CLOUDY    60  34  38 NE16G23   30.11F
Mount Vernon   CLOUDY    53  43  68 NE9       30.02F
Pittsfield     MOSUNNY   62  38  40 NE17G25   30.10F
Quincy         MOSUNNY   62  35  36 NE23G33   30.10F
Rockford       MOSUNNY   64  29  26 VRB5      30.18F
$$


CITY           SKY/WX    TMP DP  RH WIND       PRES   REMARKS
Burlington     SUNNY     63  36  36 NE16G26   30.14F
Cedar Rapids   SUNNY     63  29  27 VRB3      30.18F
Des Moines     PTSUNNY   67  27  22 E8        30.19F
Kirksville     SUNNY     64  35  34 NE18G24   30.13F
Ottumwa        CLOUDY    65  28  24 NE20G26   30.16F
St Louis       CLOUDY    58  39  49 NE18G26   30.07S
$$


CITY           SKY/WX    TMP DP  RH WIND       PRES   REMARKS
Terre Haute    LGT RAIN  56  37  49 NE14G25   30.08S
Evansville     CLOUDY    55  47  74 NE14      30.01R
Indianapolis   PTSUNNY   55  36  48 NE18      30.07F
Lafayette      PTSUNNY   58  35  42 NE18G25   30.09F
Madison        MOSUNNY   61  28  28 VRB5      30.18F
Milwaukee      MOSUNNY   56  28  34 NE7       30.20F
$$






USA.gov is the U.S. government's official web portal to all federal, state and local government web resources and services.